This demonstration page uses our WeatherBlox Daily Observations layout. Learn more.

Left ArrowRight Arrow

Hourly Observations for May 13, 2016

Temp ( °F °C ) Dew Point ( °F °C ) Humidity (%) Winds ( mph kmh ) Pressure ( in mb ) Visibility ( mi km ) Precip ( " mm )
12:53 am 00:53 Cloudy 61 16.1 58 14.4 90 90 W 6 9 29.95 1014 10 16 N/A
1:53 am 01:53 Cloudy 61 16.1 58 14.4 90 90 WSW 6 9 29.96 1014 10 16 N/A
2:53 am 02:53 Clear 59 15 56 13.3 90 90 W 7 11 29.96 1015 10 16 N/A
3:53 am 03:53 Clear 57 13.9 55 12.8 93 93 W 6 9 29.97 1015 10 16 N/A
4:53 am 04:53 Clear 55 12.8 52 11.1 90 90 W 6 9 29.98 1015 10 16 N/A
5:53 am 05:53 Clear 54 12.2 51 10.6 90 90 W 6 9 30.00 1016 10 16 N/A
6:53 am 06:53 Sunny 53 11.7 51 10.6 93 93 W 6 9 30.02 1017 10 16 N/A
7:53 am 07:53 Sunny 56 13.3 51 10.6 84 84 W 8 13 30.03 1017 10 16 N/A
8:53 am 08:53 Sunny 59 15 50 10 72 72 WNW 10 17 30.04 1017 10 16 N/A
9:53 am 09:53 Partly Cloudy 60 15.6 49 9.4 67 67 WNW 10 17 30.05 1018 10 16 N/A
10:53 am 10:53 Mostly Cloudy 62 16.7 48 8.9 60 60 NW 10 17 30.06 1018 10 16 N/A
11:53 am 11:53 Mostly Cloudy 64 17.8 49 9.4 58 58 WSW 7 11 30.06 1018 10 16 N/A
12:53 pm 12:53 Partly Cloudy 65 18.3 48 8.9 54 54 W 9 15 30.05 1018 10 16 N/A
1:53 pm 13:53 Mostly Cloudy 65 18.3 48 8.9 54 54 W 10 17 30.05 1018 10 16 N/A
2:53 pm 14:53 Mostly Cloudy 67 19.4 48 8.9 51 51 W 12 19 30.04 1017 10 16 N/A
3:53 pm 15:53 Partly Cloudy 67 19.4 48 8.9 51 51 WSW 7 11 30.03 1017 10 16 N/A
4:53 pm 16:53 Sunny 68 20 47 8.3 47 47 WSW 7 11 30.00 1016 10 16 N/A
5:53 pm 17:53 Sunny 68 20 48 8.9 49 49 W 10 17 29.99 1016 10 16 N/A
6:53 pm 18:53 Sunny 68 20 47 8.3 47 47 W 6 9 29.98 1015 10 16 N/A
7:53 pm 19:53 Sunny 65 18.3 47 8.3 52 52 WSW 6 9 29.97 1015 10 16 N/A
8:53 pm 20:53 Clear 58 14.4 52 11.1 81 81 N N/A 29.95 1014 10 16 N/A
9:53 pm 21:53 Clear 54 12.2 50 10 87 87 N N/A 29.94 1014 10 16 N/A
10:53 pm 22:53 Clear 54 12.2 50 10 87 87 SSW 3 6 29.94 1014 10 16 N/A
11:53 pm 23:53 Clear 54 12.2 51 10.6 90 90 N N/A 29.93 1013 10 16 N/A

Powered by AerisWeather